Roanoke, VA

2:41 PM EDT on October 23, 2019 (GMT -0400)
Roanoke Regional-Woodrum

Weather History for KROA - August, 2019

Change the Weather History Date:

Friday, August 9, 2019

  Actual Average Record
Temperature  
Mean Temperature 81 °F 76 °F  
Max Temperature 90 °F 87 °F 103 °F (1930)
Min Temperature 71 °F 66 °F 50 °F (1989)
Degree Days  
Heating Degree Days 0 0  
Month to date heating degree days 0 0  
Since 1 June heating degree days 0 11  
Since 1 July heating degree days 0 0  
Cooling Degree Days 16 11  
Month to date cooling degree days 118 101  
Year to date cooling degree days 1101 824  
Since 1 June cooling degree days 822 708  
Growing Degree Days 30 (Base 50)    
Moisture  
Dew Point 63 °F    
Average Humidity 57    
Maximum Humidity 69    
Minimum Humidity 44    
Precipitation  
Precipitation T in 0.11 in 3.40 in (1928)
Month to date precipitation 0.26 1.06  
Year to date precipitation 27.83 25.63  
Snow  
Snow 0.00 in - - ()
Month to date snowfall 0.0  
Since 1 June snowfall T  
Since 1 July snowfall T  
Snow Depth 0.00 in    
Sea Level Pressure  
Sea Level Pressure 29.90 in    
Wind  
Wind Speed 7 mph (WNW)    
Max Wind Speed 16 mph    
Max Gust Speed 23 mph    
Visibility 10 miles    
Events Rain , Thunderstorm    
T = Trace of Precipitation, MM = Missing Value Source: NWS Daily Summary

Daily Weather History Graph

Daily Weather History Graph

Search for Another Location

Airport or City:

Astronomy

Aug. 09, 2019 Rise Set
Actual Time 6:30 AM EDT 8:19 PM EDT
Civil Twilight 6:02 AM EDT 8:47 PM EDT
Nautical Twilight 5:28 AM EDT 9:21 PM EDT
Astronomical Twilight 4:51 AM EDT 9:58 PM EDT
Moon 3:57 PM EDT (8/9) 1:27 AM EDT (8/9)
Length of Visible Light 14h 44m
Length of Day
13h 48m
Waxing Gibbous, 70% of the Moon is Illuminated
Aug 9
Waxing Gibbous
Aug 15
Full
Aug 23
Last Quarter
Aug 30
New
Sep 5
First Quarter

Hourly Weather History & Observations

Time (EDT) Temp. Heat Index Dew Point Humidity Pressure Visibility Wind Dir Wind Speed Gust Speed Precip Events Conditions
12:54 AM 73.9 °F - 61.0 °F 64% 29.90 in 10.0 mi NW 3.5 mph - N/A   Clear
1:54 AM 73.9 °F - 61.0 °F 64% 29.90 in 10.0 mi West 6.9 mph - N/A   Clear
2:54 AM 77.0 °F - 57.9 °F 52% 29.88 in 10.0 mi NW 9.2 mph - N/A   Mostly Cloudy
3:54 AM 73.9 °F - 59.0 °F 59% 29.87 in 10.0 mi West 4.6 mph - 0.00 in   Scattered Clouds
4:54 AM 71.1 °F - 60.1 °F 68% 29.87 in 10.0 mi WNW 6.9 mph - N/A   Partly Cloudy
5:54 AM 71.1 °F - 59.0 °F 66% 29.89 in 10.0 mi WNW 5.8 mph - N/A   Partly Cloudy
6:54 AM 71.1 °F - 61.0 °F 70% 29.91 in 10.0 mi West 8.1 mph - N/A   Clear
7:54 AM 73.9 °F - 63.0 °F 68% 29.92 in 10.0 mi WSW 9.2 mph - N/A   Clear
8:54 AM 77.0 °F - 64.9 °F 66% 29.92 in 10.0 mi WSW 6.9 mph - N/A   Clear
9:54 AM 79.0 °F - 66.0 °F 64% 29.92 in 10.0 mi WSW 6.9 mph - N/A   Partly Cloudy
10:54 AM 82.0 °F 83.8 °F 64.9 °F 56% 29.93 in 10.0 mi West 9.2 mph - N/A   Scattered Clouds
11:54 AM 84.0 °F 86.3 °F 66.0 °F 55% 29.92 in 10.0 mi WSW 6.9 mph 17.3 mph N/A   Partly Cloudy
12:54 PM 84.9 °F 86.6 °F 64.9 °F 51% 29.91 in 10.0 mi West 4.6 mph - N/A   Mostly Cloudy
1:54 PM 88.0 °F 89.3 °F 64.0 °F 45% 29.89 in 10.0 mi West 6.9 mph - N/A   Scattered Clouds
2:54 PM 89.1 °F 91.0 °F 64.9 °F 45% 29.86 in 10.0 mi NNW 11.5 mph - N/A   Scattered Clouds
3:41 PM 82.0 °F 84.9 °F 68.0 °F 62% 29.91 in 10.0 mi North 12.7 mph - 0.00 in Rain , Thunderstorm Light Thunderstorms and Rain
3:54 PM 82.0 °F 84.5 °F 66.9 °F 60% 29.86 in 10.0 mi NNE 11.5 mph - N/A Thunderstorm Thunderstorm
4:03 PM 82.9 °F 85.4 °F 66.9 °F 58% 29.91 in 10.0 mi NNE 9.2 mph - N/A   Mostly Cloudy
4:54 PM 84.0 °F 85.8 °F 64.9 °F 53% 29.87 in 10.0 mi West 8.1 mph - N/A   Mostly Cloudy
5:54 PM 82.9 °F 84.0 °F 63.0 °F 51% 29.87 in 10.0 mi NW 13.8 mph - N/A   Mostly Cloudy
6:54 PM 82.9 °F 84.4 °F 64.0 °F 53% 29.87 in 10.0 mi NNW 11.5 mph - N/A   Scattered Clouds
7:54 PM 80.1 °F 81.7 °F 64.0 °F 58% 29.88 in 10.0 mi NNW 4.6 mph - N/A   Partly Cloudy
8:54 PM 79.0 °F - 64.0 °F 60% 29.89 in 10.0 mi West 3.5 mph - N/A   Partly Cloudy
9:54 PM 77.0 °F - 64.0 °F 64% 29.91 in 10.0 mi West 5.8 mph - N/A   Clear
10:54 PM 75.0 °F - 64.0 °F 69% 29.93 in 10.0 mi WNW 3.5 mph - N/A   Clear
11:54 PM 75.0 °F - 64.9 °F 71% 29.92 in 10.0 mi Calm Calm - N/A   Clear